YUKONSAT (56316 NORAD) Tracking and Keplerian Element Data

This shows tracking and keplerian element data for the satellite.

Feedback or suggestion? Click here.




ElementValue
Catalog56316
NameYUKONSAT
Epoch Orbit1939
Epoch Day238.70031745
Epoch Year2023
RAAN332.242
Inclination51.6351
Eccentricity0.0009464
Argument of Perigee336.3605
Mean Anonmoly23.6955
Mean Motion15.66115346
Decay Rate0.00094585
L11 56316U 98067VH 23238.70031745 .00094585 00000+0 89593-3 0 9993
L22 56316 51.6351 332.2420 0009464 336.3605 23.6955 15.66115346 19399



Live tracking and technical data element details for YUKONSAT (NORAD 56316). YUKONSAT can be tracked NOW for your location showing map with azimuth and elevation plus other details from your city location.







IsCatalogInMostPopularTable: catalog: 56316, numindb: 40
Update: records affected: 1



GetName: 56316 YUKONSAT

Hit Count: updated at: Thu, 28 Sep 2023 04:02:11 GMT